Location: *
(40.7113°N, 73.7007°W)
Time: 13:00:08
(UTC+00:00)

Daily predictions for brighter satellites

Satellite Brightness Start Highest point End
(mag) Time Altitude Azimuth Time Altitude Azimuth Time Altitude Azimuth
IDEFIX/ARIANE 42P 3.8 21:52:48 10° S 21:57:47 47° W 22:02:47 10° NNW
Cosmos 2279 Rocket 4.1 21:51:37 10° S 21:57:53 88° W 22:04:11 10° N
Cosmos 158 Rocket 3.9 21:55:50 10° NNW 22:00:52 62° ENE 22:05:44 10° SSE
Meteor 2-9 Rocket 4.3 21:57:20 10° N 22:02:39 50° ENE 22:07:50 10° SSE
Cosmos 1980 Rocket 3.5 21:59:37 10° SSE 22:03:45 21° E 22:07:55 10° NE
USA 215 3.4 21:57:59 10° ESE 22:04:22 59° NE 22:10:47 10° NW
Cosmos 1271 Rocket 2.8 22:01:50 10° N 22:05:40 82° W 22:09:31 10° S
Cosmos 1025 Rocket 4.4 22:04:09 10° SE 22:07:10 19° E 22:10:11 10° NE
Cosmos 1656 3.7 22:03:26 10° S 22:08:56 63° ESE 22:14:22 10° NNE
Cosmos 2084 4.3 22:06:50 10° S 22:10:34 31° ESE 22:14:03 10° NE
ISS -1.5 22:08:47 10° WNW 22:11:41 28° SW 22:14:33 10° SSE
NOSS 3-4 (A) 3.8 22:07:43 10° S 22:13:37 47° ESE 22:19:42 10° NE
NOSS 3-4 (C) 3.9 22:07:50 10° S 22:13:43 47° ESE 22:19:46 10° NE
Cosmos 2297 Rocket 2.2 22:08:43 10° NNW 22:14:24 77° ENE 22:20:03 10° SSE
DELTA 2 R/B (1) 3.7 22:10:19 10° W 22:15:53 79° S 22:21:28 10° E
Cosmos 1666 3.1 22:13:50 10° NNW 22:17:33 64° W 22:21:15 10° S
CZ-2C R/B 4.1 22:15:46 10° NNE 22:20:20 48° E 22:24:55 10° S
Cosmos 1536 Rocket 3.5 22:16:34 10° S 22:20:53 78° E 22:25:14 10° N
CZ-2C R/B 4.1 22:16:04 10° SSW 22:20:54 39° W 22:25:42 10° NNW
CENTAUR R/B 3.7 22:19:01 10° NNW 22:25:54 33° NE 22:33:15 10° ESE
Cosmos 1484 Rocket 3.1 22:24:57 10° S 22:28:57 75° W 22:32:59 10° NNW
SKYMED 2 4.0 22:32:54 10° NNE 22:37:01 41° E 22:41:06 10° S
CSL-04 Debris 4.5 22:32:08 10° S 22:37:29 71° WSW 22:42:54 10° NNW
SMAP 3.4 22:33:17 10° S 22:37:54 71° WSW 22:42:34 10° NNW
Atlas Centaur 2 4.4 22:34:11 10° WSW 22:37:58 17° SSW 22:41:17 10° SSE
METEOR-M 4.1 22:35:50 10° SSE 22:41:05 61° ENE 22:46:21 10° N
FENGYUN 3A 4.0 22:39:39 10° SE 22:44:38 40° ENE 22:49:37 10° N
Meteor 2-4 Rocket 4.0 22:40:08 10° SSW 22:45:30 65° W 22:50:51 10° N
Cosmos 2263 Rocket 3.9 22:44:16 10° NNE 22:46:10 14° NE 22:46:10 14° NE
SL-16 R/B 3.7 22:44:35 10° SE 22:47:41 16° E 22:47:41 16° E
CZ-4 R/B 4.3 22:44:09 10° SSE 22:48:15 72° ENE 22:52:23 10° N
Lacrosse 5 rocket 3.4 22:47:35 10° SSE 22:49:37 14° ESE 22:49:37 14° ESE
Gblst 52 Del rocket 4.2 22:44:29 10° NW 22:50:05 66° NNE 22:55:38 13° ESE
IRS-1A Rocket 4.2 22:45:01 10° SSE 22:50:37 89° ENE 22:56:10 10° NNW
Cosmos 2322 Rocket 3.7 22:48:08 10° SE 22:51:06 16° ESE 22:51:06 16° ESE
Cosmos 2278 4.4 22:47:04 10° SW 22:52:37 53° WNW 22:58:13 10° NNE
ALOS 2.4 22:49:27 10° SE 22:53:55 48° ENE 22:58:24 10° N
Ariane Rocket 4.0 22:49:26 10° S 22:54:20 49° W 22:59:15 10° NNW
Meteor 1-28 Rocket 4.2 22:51:17 10° N 22:54:54 46° WNW 22:58:31 10° SSW
SPOT 3 Rocket 3.6 22:53:10 10° SSE 22:58:11 53° ENE 23:03:12 10° N
Cosmos 494 Rocket 4.0 22:53:27 10° N 22:58:39 55° ENE 23:03:46 10° SE
Cosmos 2266 Rocket 4.4 22:52:42 10° NNW 22:58:45 66° W 23:04:52 10° S
Cosmos 2360 4.3 22:53:14 10° S 22:58:48 57° ESE 23:02:41 20° NE
USA 116 4.0 22:57:27 10° N 23:00:29 50° WNW 23:03:29 10° SSW
Cosmos 1697 Rocket 3.0 22:59:41 10° SSW 23:05:18 68° WNW 23:10:37 12° NNE
RESURS DK-1 2.5 23:02:12 10° S 23:06:10 50° ESE 23:07:11 40° ENE
Cosmos 1515 3.9 23:03:12 10° SSW 23:06:57 69° W 23:10:36 11° N
Cosmos 1892 Rocket 4.2 23:02:57 10° SSE 23:06:56 34° E 23:06:56 34° E
YAOGAN 1 3.0 23:02:56 10° S 23:07:13 64° WSW 23:11:32 10° NNW
Cosmos 2251 Rocket 3.7 23:02:42 10° N 23:07:45 44° ENE 23:12:45 10° SE
Cosmos 1184 Rocket 3.5 23:06:16 10° S 23:08:40 37° SE 23:08:40 37° SE
EO 1 Del DPAF 3.1 23:10:43 26° NNE 23:12:48 84° ESE 23:16:36 10° SSW
MTI 4.3 23:11:44 21° N 23:13:40 58° WNW 23:16:51 10° SSW
ERS-2 2.1 23:13:53 10° SSE 23:17:33 84° WSW 23:21:14 10° NNW
S3M 4.0 23:17:09 10° SSE 23:23:01 51° E 23:26:25 25° NNE
SJ 16-02 3.7 23:20:51 10° WSW 23:24:14 21° WNW 23:27:38 10° NNW
COSMO-SKYMED 1 3.2 23:20:59 11° N 23:25:06 57° WNW 23:29:20 10° SSW
CZ-4 R/B 3.8 23:23:32 10° SSW 23:26:41 24° W 23:29:55 10° NW
PSLV R/B 3.7 23:24:05 10° W 23:26:41 56° W 23:26:41 56° W
FengYun 1-2 T 4.1 23:40:21 10° SSE 23:45:56 75° ENE 23:51:36 10° N
Cosmos 1980 Rocket 2.8 23:41:45 10° SW 23:47:18 53° WNW 23:50:26 25° N
USA 215 4.4 23:41:26 10° SSE 23:47:30 41° SW 23:53:37 10° WNW
Cosmos 1066 Rocket 4.3 23:47:15 10° SSW 23:52:44 69° W 23:55:35 29° N
